RH
10 9 8 8 10 14 17 17 17 16 15 15 14 11 9 10 10 9 8 7 8 7 7 7 7 7 7 7 7 8 7 7 7 7 7 7 7 7 7 7 7 7 7 7 7 8 8 9 9 9 10 9 10 12 10 9 9 10 16 19 16 16 15 13 14 13 15 18 19 20 19 17 18 18 11 11 13 11 17 35 49 46 38 40 40 31 25 23
5 4 4 4 5 9 15 18 17 17 16 16 15 11 9 10 10 9 8 7 7 7 7 7 7 7 6 7 7 7 8 8 8 8 7 7 7 7 7 7 7 7 7 7 7 8 8 9 10 9 11 11 12 13 13 12 10 13 19 20 15 15 15 13 13 13 17 19 20 20 19 18 18 18 16 17 18 10 10 20 35 44 37 34 36 30 24 22
3 3 3 3 3 6 13 18 18 18 17 17 15 11 10 11 10 9 8 7 7 7 7 7 7 6 6 7 7 7 8 8 8 8 8 8 8 7 7 7 7 7 6 7 7 8 9 9 10 9 11 15 15 11 14 14 11 15 18 17 14 15 15 12 10 12 18 20 19 20 18 20 21 21 20 25 27 13 10 15 24 39 38 32 33 31 25 22
3 3 3 3 4 6 13 18 19 18 17 17 16 12 10 11 11 9 8 7 6 7 7 7 7 6 7 7 7 8 8 10 10 8 9 8 8 8 8 7 7 7 7 7 7 8 9 9 10 10 10 17 17 10 15 16 13 18 16 15 16 15 14 13 13 14 19 20 18 19 18 23 26 26 24 29 33 20 21 22 19 32 32 29 34 33 26 23
3 3 4 5 6 8 14 19 20 19 18 18 17 12 10 11 11 9 9 8 7 7 6 6 7 6 7 7 8 8 11 22 22 14 13 11 9 8 8 8 7 7 8 8 8 8 9 10 10 10 10 19 18 11 18 17 14 18 15 14 16 14 14 15 17 16 18 19 19 19 18 23 27 32 29 30 39 37 42 36 19 24 28 29 37 35 26 25
4 4 5 7 8 12 17 21 21 20 19 19 18 13 11 11 11 10 9 8 7 6 6 7 6 7 7 7 8 8 16 30 27 20 19 14 11 10 8 8 8 8 8 8 9 9 11 11 10 12 15 19 19 15 21 18 11 15 16 15 15 15 15 15 17 17 18 19 19 19 19 22 30 40 35 35 50 49 45 33 20 28 33 34 37 32 28 27
5 5 7 9 12 17 21 23 21 20 19 19 19 15 11 11 11 11 9 9 8 6 6 6 6 7 7 7 8 10 18 25 19 16 15 12 11 10 9 9 7 9 9 9 10 11 12 12 14 17 16 17 17 17 19 16 10 11 16 17 16 16 14 14 17 17 18 19 19 17 20 26 33 43 44 46 52 43 35 29 30 36 34 34 33 29 30 26
6 7 9 12 16 21 24 24 22 20 19 19 20 17 13 11 11 11 9 9 8 7 6 6 7 7 7 9 12 15 18 18 13 11 9 8 9 8 9 9 8 9 9 11 12 13 15 16 18 16 17 19 17 17 16 13 12 10 14 18 17 17 15 16 18 17 18 19 18 17 21 25 26 36 47 52 46 39 41 37 32 31 29 31 29 29 29 21
7 9 12 16 21 25 26 25 22 20 20 20 20 18 15 12 12 11 10 9 8 9 7 6 7 6 11 13 16 23 20 13 10 8 8 8 8 7 8 8 9 10 10 13 13 13 18 21 20 16 22 23 16 20 16 12 17 14 15 19 18 19 20 19 16 17 20 18 17 17 20 20 20 31 39 41 38 36 42 38 27 25 27 28 27 29 26 19
6 8 12 17 23 27 27 26 24 22 21 20 20 20 17 13 12 12 11 9 9 10 7 7 7 7 15 16 23 32 21 11 11 9 8 8 7 8 7 8 10 11 12 14 13 15 18 20 18 14 20 20 17 21 15 14 22 19 18 20 19 21 20 17 15 18 19 17 17 17 19 17 18 29 30 29 32 27 30 35 31 26 25 24 24 25 21 21
4 5 8 13 20 25 27 26 24 23 22 22 21 20 18 14 13 12 11 10 9 10 8 7 6 10 19 20 29 34 19 11 11 8 8 8 8 8 7 9 10 12 14 15 16 18 19 19 16 16 21 21 19 20 16 16 19 18 20 20 19 20 18 16 16 18 18 16 17 17 19 17 17 25 24 26 31 23 20 29 32 29 24 20 23 22 19 22
4 4 5 7 12 18 22 23 24 24 24 23 22 21 20 17 14 12 12 11 9 10 9 7 8 16 23 24 26 26 17 13 11 8 8 7 8 8 7 9 10 12 15 18 21 21 22 21 18 22 26 24 22 21 20 18 15 17 21 19 18 18 18 17 16 17 17 17 17 17 19 18 19 21 18 20 25 22 17 20 25 25 21 19 22 23 21 23
4 4 4 4 6 9 12 16 19 22 24 25 24 22 21 19 15 13 12 12 10 10 9 7 10 19 26 26 23 20 16 12 10 8 8 7 8 8 8 9 10 12 16 22 26 23 21 23 23 24 24 24 27 24 22 20 17 19 21 19 17 15 17 17 16 16 17 17 17 17 17 16 19 18 14 16 16 17 18 16 17 18 18 18 20 23 24 23
5 4 4 4 4 5 6 8 12 17 21 24 25 24 23 21 17 14 13 13 11 10 9 8 13 21 25 24 22 20 16 13 11 9 9 9 8 8 9 10 11 14 18 24 29 26 20 22 26 25 23 25 27 24 23 22 20 20 19 18 16 14 17 18 17 18 17 17 17 16 16 14 17 17 15 15 13 13 15 15 16 17 17 17 17 21 25 24
5 5 4 4 4 4 5 5 7 11 16 21 24 26 24 22 20 16 13 13 12 10 10 12 17 22 25 23 21 20 17 14 13 11 11 11 10 11 10 10 12 15 20 24 28 27 22 22 26 26 25 25 24 23 23 20 20 21 18 16 14 14 18 19 18 20 19 18 17 16 15 14 16 17 15 14 14 13 13 13 15 17 18 17 19 24 27 26
5 5 5 4 4 5 5 5 6 8 12 16 19 23 24 25 23 18 15 14 12 11 12 19 22 23 30 28 21 19 18 16 14 13 15 14 14 17 15 13 14 15 19 22 25 26 24 24 25 26 25 24 23 21 20 18 18 19 18 18 16 15 16 19 20 21 22 20 18 18 15 15 17 17 16 15 14 14 13 12 13 16 18 18 21 26 28 26
5 5 5 4 4 5 5 5 6 7 9 12 15 17 19 22 24 22 17 13 14 12 13 24 26 25 33 31 24 22 19 17 16 15 16 16 18 20 21 21 19 19 20 22 23 22 25 25 25 26 25 24 24 20 19 18 18 18 19 21 20 18 17 17 21 22 22 21 21 21 17 18 21 18 16 15 15 15 14 13 12 16 18 18 21 25 26 26
5 5 5 5 5 5 5 5 6 6 7 9 10 11 13 16 20 23 21 16 14 12 15 22 23 27 32 29 28 27 20 18 16 15 16 18 20 21 23 26 24 24 25 25 25 23 25 25 26 29 27 25 23 20 19 17 19 20 20 21 20 20 19 18 23 25 24 23 22 22 19 19 23 20 16 16 15 14 15 14 13 15 17 18 20 22 24 26
5 5 5 5 5 5 6 6 6 7 6 7 8 8 12 12 13 18 20 20 15 13 20 21 21 31 35 29 29 27 21 20 18 16 17 17 20 21 23 25 24 26 27 27 28 26 26 27 26 27 25 26 26 22 21 20 21 22 23 23 20 18 18 21 26 26 24 23 21 22 22 22 24 22 18 17 16 14 14 15 15 15 17 17 18 19 22 25
5 4 4 5 5 5 6 6 8 9 7 9 8 9 14 14 20 23 16 18 19 16 21 20 19 30 35 31 30 26 23 22 20 18 18 19 20 21 22 22 22 26 27 28 31 27 24 27 27 25 26 28 26 21 19 17 17 22 26 24 21 20 19 24 30 26 23 21 22 26 26 24 25 25 21 18 17 16 14 15 16 15 16 17 17 17 19 22
6 5 5 5 5 6 6 6 7 8 8 9 10 16 22 20 28 30 16 16 20 17 18 17 17 26 32 32 31 29 28 26 23 20 19 20 20 22 23 23 24 26 26 26 27 23 22 27 27 25 26 25 22 19 18 16 17 24 28 25 23 21 21 28 30 25 23 20 22 29 27 23 27 28 24 19 18 17 16 16 16 16 17 17 18 19 19 22
8 7 7 5 6 6 6 5 6 7 8 10 15 23 28 29 33 31 21 19 19 17 19 16 16 25 31 33 33 33 32 32 29 23 22 22 23 27 27 25 26 27 24 21 22 24 23 25 27 25 22 21 23 23 19 21 26 28 28 27 25 22 23 29 28 25 26 23 24 29 26 22 28 31 26 22 20 18 18 17 16 17 18 18 19 20 22 22
9 9 8 8 7 6 6 6 6 7 8 11 16 19 26 33 37 35 28 26 21 18 19 16 16 26 33 34 34 34 35 39 36 29 29 27 27 31 30 26 27 27 24 22 24 24 22 25 26 23 22 25 27 25 23 28 33 32 29 26 26 27 26 27 30 31 29 26 27 30 27 22 26 30 27 25 23 20 18 17 18 17 17 18 18 20 21 21
10 9 9 9 9 8 8 7 7 7 8 11 14 19 29 34 37 39 33 30 26 20 19 19 19 29 35 33 33 34 37 40 39 36 33 31 32 32 30 28 28 26 24 25 26 22 22 27 26 23 25 29 30 28 29 31 31 34 34 28 26 32 30 27 34 37 31 29 29 29 25 20 23 27 26 27 26 23 20 17 18 18 17 18 18 18 19 19
10 10 10 10 9 9 9 8 8 6 7 11 14 25 37 37 40 43 36 38 38 26 23 25 24 30 32 29 29 32 36 37 37 37 33 33 35 33 31 29 26 26 24 24 25 23 24 25 25 27 27 28 31 32 34 32 28 31 36 33 29 32 33 32 37 35 28 29 33 30 21 18 24 27 27 30 29 26 23 19 18 18 17 17 18 18 19 19
10 11 11 10 10 10 9 9 8 6 7 10 15 28 38 37 41 43 40 46 43 32 34 34 31 34 32 29 30 31 34 36 35 34 32 32 33 31 31 28 24 25 25 24 25 24 25 24 25 26 24 27 33 34 36 33 26 27 31 33 31 32 35 37 37 32 24 25 32 31 22 18 22 25 28 31 30 30 29 23 21 20 19 18 18 18 19 19
10 11 11 11 11 10 10 10 9 7 7 8 12 25 35 35 38 44 45 44 37 35 42 39 34 37 34 31 31 32 34 34 32 32 32 32 31 29 29 26 23 23 23 23 24 24 23 24 25 24 26 31 31 30 34 30 26 29 31 33 35 36 39 39 36 31 26 27 31 30 27 22 19 23 30 31 29 31 33 30 26 25 24 22 20 20 19 19
11 11 11 12 12 11 11 11 10 9 7 8 10 21 34 36 38 45 47 42 39 40 39 35 35 35 33 31 30 33 34 31 31 32 31 32 32 30 29 27 26 25 24 24 24 23 23 25 26 26 29 30 25 27 33 31 29 33 31 32 37 40 41 40 35 31 30 31 27 26 31 26 18 23 32 31 27 27 33 35 30 27 27 26 25 24 23 22
11 10 11 11 11 12 11 10 11 10 8 9 8 14 25 31 39 47 44 40 41 39 33 33 35 32 32 32 29 30 31 30 32 32 30 31 32 30 30 29 28 26 26 25 26 27 25 25 24 24 27 27 25 27 32 34 33 32 31 33 37 39 41 40 34 29 31 32 24 24 32 27 18 22 29 30 28 26 33 36 31 28 27 27 27 26 26 26
11 11 11 11 11 11 10 11 10 10 10 9 8 10 13 26 46 49 41 40 38 34 32 33 31 28 30 31 29 29 29 29 30 29 29 30 30 29 29 29 28 28 29 27 27 27 24 23 23 22 23 25 26 25 27 34 36 34 35 36 36 37 37 35 31 28 28 27 25 28 32 29 21 19 24 30 30 28 32 37 34 30 25 24 25 26 27 27
12 12 11 11 11 10 10 10 9 10 10 9 10 9 9 32 55 47 35 38 36 31 31 30 26 24 27 29 28 28 28 27 26 27 29 28 28 28 27 27 27 28 29 28 26 26 23 23 25 24 22 21 23 23 25 31 37 39 38 34 32 31 32 30 28 30 27 23 30 34 32 32 25 20 25 30 28 25 29 34 34 31 27 26 27 28 28 28
12 12 12 12 12 11 10 10 10 10 9 10 11 8 14 39 51 40 35 38 34 30 30 28 25 22 24 27 26 26 27 26 24 24 26 26 27 29 27 27 28 26 25 25 25 26 23 24 25 23 23 22 22 25 27 28 33 38 35 31 28 24 27 27 24 25 23 22 33 35 32 32 25 22 31 31 25 24 26 29 29 28 29 28 28 28 29 28
13 12 13 13 13 12 11 10 11 9 9 11 8 9 22 36 38 37 38 37 33 31 30 29 28 25 25 25 23 23 24 24 23 23 24 24 26 28 24 24 26 26 25 26 25 22 20 22 24 23 23 24 22 24 25 26 31 34 31 29 28 23 25 28 22 19 18 23 35 37 33 30 23 24 31 28 23 25 26 27 28 27 27 26 26 26 26 26
13 13 13 13 14 14 13 12 11 10 11 10 8 17 27 26 29 39 40 36 34 31 30 31 31 29 28 26 23 22 24 24 24 25 25 25 26 28 28 25 23 25 27 27 26 22 18 20 24 25 25 25 24 22 24 26 29 31 30 28 26 24 26 26 22 20 19 23 35 40 33 25 25 31 30 25 24 25 26 27 27 26 25 25 24 23 23 24
14 15 14 14 14 14 15 15 13 13 11 10 16 27 24 16 26 40 38 36 36 32 31 32 30 29 28 27 25 23 25 26 24 26 29 27 28 32 34 30 24 26 28 26 26 25 21 20 23 24 23 24 24 24 24 25 25 28 30 28 26 25 25 25 26 26 24 23 30 34 29 25 29 32 26 25 26 25 27 29 27 27 26 25 24 22 21 21
15 15 14 15 15 14 16 15 16 16 14 18 26 26 20 19 29 38 36 35 36 34 33 32 30 29 26 27 27 24 25 26 22 26 30 28 30 32 33 30 27 29 29 27 29 28 22 22 25 23 23 24 24 24 25 24 25 29 28 25 25 26 26 27 29 31 28 26 26 26 26 27 29 30 27 26 27 26 28 30 29 28 27 26 25 24 23 22
13 14 15 16 15 15 15 13 15 15 13 23 32 27 25 29 27 28 31 32 35 35 33 32 31 29 27 27 28 25 26 26 22 23 24 25 30 33 33 34 32 32 33 30 33 33 26 24 28 28 27 27 25 25 26 26 26 28 27 26 26 27 28 28 28 29 28 27 25 23 28 27 23 31 36 31 27 28 29 30 30 30 29 28 27 26 25 24
11 13 14 14 15 15 14 14 15 15 18 28 33 28 29 34 29 25 28 30 34 35 32 31 32 31 30 28 27 28 29 28 26 26 24 24 30 32 33 38 37 35 35 33 36 39 33 25 25 29 31 29 27 28 27 28 28 27 27 29 28 26 27 27 29 30 28 28 27 24 28 27 22 29 37 34 30 29 28 31 32 31 30 30 28 28 28 25
9 11 12 12 14 14 14 16 14 15 26 35 36 36 38 38 31 27 29 30 32 34 32 32 33 33 31 28 28 31 31 30 29 29 27 27 31 31 30 37 39 38 37 37 40 42 40 34 26 28 35 32 30 31 26 27 30 30 29 29 30 30 28 27 30 30 29 30 31 29 27 25 25 27 30 34 35 30 28 32 34 33 32 32 31 30 30 28
7 10 13 11 11 14 14 14 14 22 36 38 35 43 46 41 36 34 36 36 33 34 35 35 35 34 34 33 32 32 34 34 31 30 28 28 30 29 28 29 33 35 34 34 37 38 42 43 32 28 36 33 30 32 30 29 32 33 31 29 31 33 32 30 30 30 31 29 29 32 28 25 30 31 31 38 37 30 31 33 33 34 34 34 34 33 32 31
6 9 14 8 11 16 12 17 26 33 44 42 34 37 37 34 39 41 42 43 39 36 38 38 37 37 37 36 35 35 36 35 31 29 28 26 26 28 28 24 24 27 27 28 36 38 38 41 36 30 32 30 30 36 37 36 36 36 34 31 30 32 32 32 29 28 32 29 26 29 27 27 35 33 32 39 35 28 32 34 34 36 37 36 36 35 35 33
7 12 14 7 12 14 13 30 37 26 33 43 38 35 30 27 35 41 46 50 46 42 41 40 39 40 41 39 38 38 37 34 32 29 28 28 28 29 28 23 19 21 23 30 37 34 27 30 33 30 26 25 30 38 38 38 39 40 39 37 36 35 33 32 28 26 29 31 30 30 27 32 39 32 30 36 32 29 33 35 36 38 37 38 38 36 37 36
9 13 11 7 12 10 14 35 36 20 28 37 30 27 25 24 30 37 44 49 49 47 45 44 44 44 44 43 41 39 36 34 33 31 30 33 32 27 25 25 23 23 28 36 40 34 27 29 30 27 23 24 29 32 30 30 34 39 40 41 42 40 38 38 36 34 35 34 34 33 30 34 38 35 34 35 32 33 35 35 38 39 38 39 39 39 39 38
9 11 9 8 10 9 14 29 33 33 35 24 17 22 23 24 28 33 40 44 45 47 46 45 46 44 44 42 39 39 36 33 36 35 32 36 36 29 25 29 31 32 35 40 43 40 34 35 35 28 24 27 30 30 27 24 25 32 39 43 42 40 42 44 41 39 41 37 33 32 29 31 37 40 40 37 36 36 37 37 39 40 40 41 40 40 40 40
7 9 10 11 10 10 14 18 23 33 29 15 20 28 25 26 28 27 33 36 35 38 39 38 37 35 35 34 31 33 31 28 34 37 33 35 35 28 27 31 33 36 37 35 37 38 35 39 43 34 27 29 28 27 31 30 27 32 40 43 39 37 42 45 39 36 38 36 34 35 30 29 39 45 41 36 36 37 39 40 41 41 41 40 40 40 40 40
9 10 10 11 12 12 14 11 12 19 18 18 31 34 31 38 36 26 29 34 31 31 31 29 29 28 29 29 30 35 33 27 30 36 38 41 39 32 32 35 36 36 38 37 37 39 42 47 48 40 34 33 29 26 33 38 36 36 39 40 41 41 41 42 40 36 33 31 32 35 31 31 39 46 43 37 34 37 40 40 40 41 41 40 40 40 40 42
15 15 13 14 17 18 18 16 15 17 17 23 35 35 33 40 39 32 33 33 30 28 27 27 27 29 32 35 39 45 42 35 36 39 43 46 45 39 36 39 41 39 40 41 40 42 49 50 48 49 47 41 38 37 41 44 41 38 38 39 43 44 44 44 42 37 35 34 31 29 29 33 37 39 43 43 38 36 39 41 42 42 42 42 42 42 42 43
20 20 20 20 23 26 28 25 23 23 23 25 31 32 31 33 37 39 37 32 31 32 33 36 34 31 35 38 42 50 51 48 50 49 47 48 48 47 46 45 45 43 45 48 46 47 54 53 49 54 54 48 45 46 47 48 45 43 44 45 46 48 50 51 47 41 41 42 37 34 36 40 39 36 38 44 46 43 43 49 50 45 42 43 42 40 40 39
24 26 26 26 27 28 30 30 29 30 30 30 31 32 33 34 35 36 34 33 36 33 33 42 42 34 35 36 40 53 59 55 55 54 51 50 50 51 54 53 50 49 51 54 53 51 53 52 50 52 54 52 47 46 49 51 48 47 48 48 49 50 52 55 54 51 48 47 46 46 44 43 43 40 35 37 43 44 44 48 49 43 39 40 39 39 39 37
26 27 27 29 31 29 29 30 30 32 33 34 36 36 36 37 36 37 36 36 40 38 38 49 51 41 41 45 47 56 58 53 53 54 50 51 53 55 58 59 58 57 57 57 58 55 52 52 56 58 57 54 49 48 49 50 49 48 49 49 49 51 53 54 54 55 55 53 52 51 47 43 43 44 41 38 39 41 40 41 41 40 40 40 40 41 41 40
25 27 28 30 31 31 34 33 30 37 42 38 38 41 41 42 42 42 42 42 44 45 46 52 55 50 51 54 52 54 55 52 53 55 52 53 58 60 61 61 60 60 62 61 60 58 54 54 59 61 56 51 48 47 47 48 48 47 49 53 52 50 53 52 49 51 52 49 48 49 50 49 47 47 48 46 44 43 42 41 41 41 42 42 42 42 43 43
24 27 28 29 32 33 36 36 35 47 55 45 41 44 45 48 50 48 52 54 51 52 54 55 57 60 64 64 59 56 58 57 57 58 57 57 59 58 58 59 57 57 62 65 64 62 59 58 58 54 49 47 45 47 51 52 48 44 47 52 50 47 50 51 50 51 51 51 53 55 55 55 54 54 53 52 52 49 44 42 42 43 43 43 44 44 44 45
Wind_Speed
14 14 14 14 13 12 11 10 9 10 10 10 10 10 10 9 9 8 8 8 7 7 6 6 7 7 8 8 8 8 9 9 9 11 10 10 10 10 11 12 13 13 13 14 13 13 14 13 13 12 12 13 13 13 15 14 14 11 9 11 12 11 8 8 6 9 10 7 5 6 11 14 12 15 16 17 22 23 23 24 23 20 17 15 13 12 13 13
13 13 13 13 13 12 11 10 9 9 9 9 9 9 9 8 8 8 8 7 7 6 6 5 5 6 6 6 7 7 7 8 9 9 9 8 9 8 9 10 11 12 11 12 12 13 13 13 13 12 11 12 12 13 12 13 13 11 9 11 12 9 9 11 11 12 11 9 8 6 10 12 12 13 13 13 19 23 24 24 22 22 20 15 14 13 12 14
12 12 13 13 12 12 11 10 9 9 8 8 8 8 8 8 8 7 7 7 6 6 5 5 4 4 4 5 5 5 6 7 7 8 8 8 8 8 8 8 9 10 9 10 11 12 12 13 13 12 11 11 12 13 11 13 13 12 12 12 11 10 11 13 13 12 11 11 8 7 8 9 11 11 9 12 17 22 24 24 22 22 21 18 16 14 12 14
11 11 11 11 11 11 10 9 8 8 8 8 8 7 7 7 7 7 6 6 5 5 4 4 3 3 3 4 4 4 3 4 5 6 7 7 7 8 8 8 8 8 7 8 9 11 12 13 12 12 12 10 13 13 11 13 12 12 15 11 9 11 12 10 10 11 11 12 8 6 6 7 9 8 8 12 16 19 21 22 23 23 22 19 17 14 13 14
10 10 10 9 9 9 9 8 8 8 7 7 7 7 7 6 6 6 6 6 5 4 4 3 3 2 2 2 2 2 0 0 3 4 4 5 6 7 8 8 8 6 6 7 8 10 10 12 12 11 11 9 12 11 11 15 14 13 14 12 12 12 11 8 8 11 12 12 7 6 6 8 7 4 7 12 11 14 19 24 25 23 19 17 15 14 14 15
8 8 7 7 7 7 7 7 7 7 7 6 6 6 6 6 6 6 6 6 5 4 3 3 2 1 1 0 0 1 3 3 2 2 2 3 4 5 6 7 7 6 6 7 8 9 10 11 10 9 9 9 10 9 11 15 14 12 10 11 13 12 12 10 8 10 12 11 6 6 8 7 3 1 4 11 11 14 20 24 22 18 16 16 15 14 15 16
6 6 5 5 5 6 6 6 6 6 6 6 6 6 6 5 5 5 5 5 5 4 3 2 1 0 1 1 2 2 4 4 1 0 2 2 3 3 5 6 6 6 6 7 8 9 10 10 9 9 9 8 10 10 11 12 11 11 10 11 11 11 12 10 8 10 11 10 7 6 6 3 2 1 4 9 11 13 16 18 17 14 14 15 14 14 15 17
5 4 4 4 4 4 5 5 6 5 5 5 5 5 5 5 5 5 4 4 4 3 2 1 0 1 2 3 4 3 3 2 1 2 3 3 3 4 5 7 6 6 7 7 9 10 10 9 9 9 7 8 11 10 10 10 9 11 11 10 9 10 10 8 8 10 11 9 6 4 2 0 2 3 7 8 9 12 14 17 16 14 13 14 13 14 17 19
5 4 3 3 4 4 5 5 5 4 5 5 5 5 4 4 4 4 4 4 3 2 1 1 2 3 4 5 5 4 2 2 3 4 5 5 5 5 6 7 7 7 8 8 10 12 10 9 10 10 9 9 10 8 9 7 7 11 9 8 8 8 8 8 8 10 11 8 5 3 1 1 3 7 7 6 10 12 14 17 15 13 14 14 14 15 19 21
7 5 3 3 4 5 5 4 4 4 4 4 4 4 4 3 3 4 3 3 2 1 0 2 3 5 6 6 6 2 2 4 4 5 6 6 5 6 7 8 9 9 10 11 12 12 11 10 10 10 9 8 8 7 8 7 7 9 7 7 6 7 7 7 8 10 10 7 6 4 3 3 6 8 4 5 12 12 11 15 14 13 14 15 15 16 20 20
8 6 4 2 4 5 5 5 4 4 4 4 4 4 3 3 3 3 3 2 1 1 1 3 5 6 7 6 6 2 3 5 4 6 7 6 5 6 9 10 11 12 13 12 12 12 10 8 8 8 5 5 6 6 7 8 10 6 3 4 4 6 6 5 8 10 8 7 8 7 4 5 7 7 5 8 13 11 9 12 13 13 14 16 16 16 19 19
8 7 6 4 2 4 5 6 5 5 5 4 4 3 3 3 2 2 2 2 1 1 1 4 7 8 7 5 5 4 4 5 5 7 8 6 6 6 8 11 12 14 15 13 11 11 10 8 9 9 6 5 5 4 6 7 8 5 2 3 4 4 5 5 8 10 8 8 10 10 6 7 6 5 6 9 11 9 8 10 12 13 14 16 17 17 18 19
7 7 7 5 4 3 3 4 5 5 5 4 4 3 3 2 2 1 1 1 0 1 3 6 8 9 7 4 4 5 5 5 6 7 8 7 8 8 9 10 11 13 14 13 10 10 10 10 9 8 8 7 5 6 7 5 5 4 3 4 5 6 6 6 8 9 8 8 10 11 10 10 8 5 6 7 10 10 9 10 11 12 14 16 18 18 19 20
7 7 7 6 5 4 3 3 3 4 5 5 5 4 3 3 2 2 2 1 1 3 5 8 10 9 7 5 5 5 5 5 6 7 8 9 10 10 10 11 12 13 13 12 11 8 9 10 8 7 7 7 6 5 4 4 5 3 4 4 6 8 8 8 9 8 7 10 12 10 10 10 7 5 6 6 8 10 11 12 12 13 14 16 18 20 21 21
6 6 6 6 5 5 4 4 2 1 3 5 5 5 5 3 3 2 2 2 2 5 7 9 10 9 6 5 5 5 5 6 6 7 8 9 10 11 11 11 12 12 12 11 10 8 8 9 7 6 5 5 5 4 3 5 6 5 6 6 8 7 8 8 9 9 8 9 12 10 10 8 6 6 6 5 5 8 11 13 14 13 15 17 19 21 22 22
5 5 5 5 4 4 4 4 3 2 0 2 4 6 6 5 4 3 3 3 4 6 9 10 9 8 6 5 5 5 5 6 6 7 8 9 10 11 10 10 10 11 10 10 9 8 7 8 6 4 4 4 3 4 4 6 7 7 6 4 7 6 7 10 8 8 9 7 8 10 10 6 5 7 6 6 6 6 8 11 14 14 14 18 21 22 23 24
4 4 4 4 4 4 4 3 3 3 1 0 2 3 5 5 6 4 4 4 5 8 10 11 10 9 6 5 6 6 6 6 7 7 8 8 9 10 10 9 9 9 8 8 7 6 5 7 6 3 3 3 4 5 6 8 8 8 6 4 5 5 5 9 8 6 7 6 6 8 8 5 4 7 7 7 7 7 7 9 12 14 14 18 21 22 23 24
4 4 4 4 3 3 3 3 3 3 1 1 1 1 1 3 5 6 6 5 6 8 9 10 11 8 5 7 7 7 7 7 7 8 8 8 8 8 9 8 8 8 7 5 5 5 5 6 5 3 4 4 4 6 6 5 4 5 6 5 6 7 6 5 6 6 5 5 5 6 9 7 4 7 10 9 9 9 9 9 11 13 15 18 20 21 23 25
4 4 4 3 3 3 3 2 2 1 0 1 1 1 1 1 2 5 8 8 8 9 9 10 12 8 7 8 8 7 6 6 7 7 7 8 7 7 8 7 7 7 6 4 6 6 6 5 5 6 6 5 6 6 5 3 2 5 6 5 5 7 8 5 3 5 5 5 6 5 7 6 3 6 10 11 10 11 12 12 12 12 13 16 18 20 22 24
5 4 4 4 4 4 3 2 1 1 1 1 2 2 2 2 1 2 6 9 10 11 10 11 13 11 10 10 8 7 6 5 6 7 7 7 7 6 6 6 6 6 7 6 7 8 6 6 7 6 5 6 8 8 6 5 6 8 8 8 8 7 8 6 3 6 6 6 6 5 5 6 4 5 8 11 11 13 15 15 14 13 12 13 15 18 21 23
5 5 5 5 5 5 4 3 3 2 2 3 3 4 4 3 2 2 4 7 12 13 11 11 13 11 12 11 9 8 7 6 6 6 7 7 7 6 4 5 6 7 8 8 8 7 6 6 7 6 7 8 9 8 6 6 7 9 8 8 10 10 8 5 4 6 6 8 7 5 6 8 6 5 7 9 11 14 17 16 16 15 13 12 12 16 20 22
5 4 5 5 5 5 5 4 4 4 4 4 5 5 4 4 3 1 1 4 10 13 11 11 13 11 12 12 9 8 7 7 6 6 7 7 8 7 5 5 6 8 10 9 8 7 7 7 7 7 8 8 7 6 5 5 7 9 9 9 10 10 8 6 6 6 5 7 8 5 8 10 8 8 9 8 8 13 17 17 17 17 15 14 12 14 19 22
4 4 4 4 4 5 4 4 4 4 4 4 4 4 4 4 3 3 3 4 7 13 12 12 13 11 11 11 9 9 8 7 7 7 7 8 9 8 6 6 5 7 9 8 8 8 7 6 7 8 7 6 6 6 6 6 7 9 9 11 9 7 8 8 6 6 5 6 7 6 8 12 10 11 12 10 7 9 15 18 19 19 17 16 14 14 17 21
4 3 3 3 4 4 4 4 3 3 3 4 4 3 4 3 4 4 5 7 7 10 12 11 13 12 11 11 10 10 8 7 8 8 7 9 8 7 6 6 6 6 6 7 8 8 4 4 7 7 6 7 6 6 7 7 8 9 10 12 9 6 8 8 4 4 6 7 8 8 11 14 12 11 12 11 8 7 12 18 20 19 17 15 14 14 16 18
4 4 3 3 3 4 4 3 2 2 2 2 3 3 3 4 4 4 7 8 5 8 10 10 13 12 10 10 10 10 9 7 9 10 9 9 8 7 7 6 5 5 6 6 6 6 5 5 7 7 5 7 8 7 7 8 9 9 11 12 11 7 7 8 5 5 9 9 6 5 10 9 6 8 9 9 9 8 10 16 18 18 17 16 16 15 16 17
4 4 4 4 4 4 4 3 1 2 2 1 2 2 2 3 3 4 7 7 5 8 9 9 11 10 9 9 9 9 7 7 9 10 10 10 9 7 6 6 4 5 6 4 4 5 5 5 7 7 5 6 7 8 8 9 9 9 9 10 10 10 9 8 7 7 10 9 4 3 8 7 5 7 9 8 8 9 11 14 16 16 16 16 16 17 17 17
4 4 4 4 4 4 4 3 3 2 2 1 0 1 0 1 2 4 6 5 6 7 7 9 9 8 9 8 8 8 5 5 7 8 10 10 9 6 5 5 4 4 5 4 4 4 3 4 6 7 6 6 8 9 8 9 10 8 6 7 9 10 9 8 8 9 10 9 8 8 8 11 12 9 7 7 8 10 11 13 15 14 15 15 15 17 18 19
5 5 5 5 5 5 5 4 4 3 3 2 1 1 1 1 1 4 4 2 4 5 8 9 7 8 10 7 7 8 6 6 4 6 11 11 9 7 5 5 5 4 3 3 3 2 1 3 5 7 7 8 9 8 6 8 10 8 6 8 9 9 9 8 8 10 8 7 11 11 8 9 13 9 7 8 10 12 11 11 14 15 15 16 17 18 19 19
5 5 5 5 5 5 5 5 5 5 4 3 2 2 2 2 2 4 3 1 4 5 8 8 6 7 9 6 6 8 7 7 4 5 9 9 8 7 5 6 6 5 5 5 3 3 5 3 4 7 9 9 10 8 6 8 10 10 8 9 9 8 8 7 9 10 8 8 12 10 7 8 10 9 9 8 9 11 9 8 12 15 16 17 19 19 20 21
6 6 6 6 5 5 5 5 5 5 5 4 3 3 3 3 3 4 5 3 5 6 7 8 6 5 7 6 5 6 8 8 7 6 7 6 6 6 6 6 6 6 6 7 5 5 5 2 3 5 8 11 12 10 7 7 9 10 10 9 8 8 7 7 9 9 8 9 10 8 7 7 8 9 10 7 6 8 9 7 9 12 14 16 17 16 16 17
6 7 6 6 6 5 5 5 5 5 5 5 4 3 2 2 4 5 4 5 6 6 7 7 6 5 6 7 6 7 8 7 7 6 5 6 5 5 5 5 5 6 7 8 7 5 5 4 5 5 5 9 12 11 9 7 8 10 10 9 9 9 8 9 10 8 8 8 3 4 6 8 9 9 7 7 7 8 9 7 8 10 11 13 14 13 13 13
7 7 7 6 6 5 4 4 4 5 4 5 4 3 2 4 7 5 3 6 6 6 7 6 6 6 7 7 6 8 7 5 6 6 6 6 6 6 7 6 5 7 9 7 6 5 6 7 7 6 4 5 9 11 10 10 10 10 11 11 11 9 7 9 8 7 8 6 4 4 4 7 11 9 6 7 10 10 9 8 8 9 9 11 12 13 14 14
9 9 8 7 6 5 5 4 4 4 3 4 4 3 3 6 7 6 6 6 5 8 9 7 7 7 7 6 6 7 7 5 5 5 5 5 5 7 9 8 8 9 8 5 5 7 7 8 8 7 5 4 8 10 10 11 12 13 13 12 11 8 6 7 7 7 8 5 4 4 5 7 10 9 8 11 13 11 9 7 7 8 8 8 8 9 11 12
11 11 10 9 8 6 5 5 4 3 2 2 2 3 5 6 6 7 7 5 6 9 9 8 6 5 5 6 6 7 5 4 6 4 3 5 5 5 5 7 9 9 7 7 8 8 8 6 5 5 4 4 6 10 10 9 10 13 12 12 13 12 9 8 6 6 7 3 5 5 5 7 7 4 5 7 9 10 8 7 7 6 6 6 5 5 4 5
12 12 12 11 9 8 7 7 5 4 3 2 3 5 7 7 5 6 7 6 7 8 7 7 6 4 5 5 6 8 6 4 5 5 3 5 6 5 4 5 7 7 7 8 7 7 9 8 5 6 7 6 7 8 9 10 11 12 12 13 14 13 11 10 9 9 10 7 4 7 7 7 7 5 6 6 7 9 9 9 7 6 6 7 6 3 1 2
14 14 14 13 11 10 9 9 8 7 6 3 4 8 9 8 5 6 8 8 8 7 6 7 7 6 7 6 5 6 7 5 4 5 4 5 6 6 6 7 7 6 7 7 6 6 9 8 7 9 9 9 9 8 8 10 9 8 12 15 15 13 12 10 9 9 10 9 8 9 10 10 9 10 13 14 12 11 11 10 9 8 8 8 7 4 4 5
16 16 16 15 13 12 11 12 10 10 9 7 7 10 9 9 9 9 9 10 9 9 8 8 8 8 7 6 6 5 5 5 5 5 5 5 5 7 7 7 7 7 8 7 6 7 9 9 8 8 8 10 11 9 9 11 9 8 10 12 12 14 14 11 9 7 8 8 8 10 12 13 12 9 10 14 14 14 15 13 11 11 10 10 9 7 8 9
16 17 18 17 15 13 12 13 12 11 11 10 11 13 12 10 11 11 11 11 11 10 9 9 8 8 7 7 7 5 5 6 4 5 5 4 5 7 8 7 7 8 8 7 5 6 9 10 9 9 9 12 11 11 11 12 12 13 12 10 11 12 12 11 9 8 8 8 8 10 12 15 16 10 8 11 13 16 17 16 14 13 13 11 10 10 10 10
15 17 19 18 16 14 13 13 13 11 10 10 11 12 12 11 12 12 11 12 12 10 9 9 8 8 8 8 7 5 6 6 5 5 7 5 5 7 9 8 6 7 8 6 4 5 6 8 10 8 8 11 10 11 13 12 12 14 15 14 13 14 14 13 12 11 11 8 8 10 11 11 12 11 9 11 14 16 17 16 16 15 14 13 12 12 11 10
14 14 17 18 16 15 14 14 13 11 10 11 11 10 11 11 13 13 12 12 12 10 9 9 8 8 9 9 8 7 7 7 6 6 6 6 5 7 9 10 9 9 9 7 6 7 5 7 11 9 7 11 12 12 13 11 10 11 14 15 14 14 15 16 16 16 14 11 8 8 10 11 8 7 8 10 14 17 16 17 18 17 15 15 14 13 12 11
13 12 16 18 16 16 15 13 13 12 11 12 12 12 13 13 12 13 13 13 12 12 11 10 9 9 8 9 9 8 7 8 8 8 8 7 7 7 9 10 11 11 10 8 7 8 6 7 11 12 11 12 11 11 13 13 13 12 13 15 15 15 15 14 13 15 15 14 12 9 11 12 7 6 9 11 14 16 17 18 19 18 17 16 15 14 13 12
14 12 15 17 16 17 15 13 15 16 14 13 13 14 14 14 14 14 14 14 13 13 14 12 12 11 9 9 9 9 9 9 9 9 9 8 9 9 9 10 11 11 9 8 9 11 11 10 12 14 16 15 13 13 15 16 15 14 14 15 14 14 16 15 13 13 14 14 14 13 12 10 6 8 10 11 12 14 16 19 19 19 19 17 16 16 14 14
15 15 16 16 16 17 15 13 17 18 16 15 16 15 14 14 15 15 15 15 13 13 13 13 13 13 12 12 12 10 11 10 10 10 10 9 12 14 13 11 12 11 9 8 9 11 10 9 12 15 15 16 17 19 20 21 19 16 16 16 15 14 16 18 17 16 16 16 15 13 11 10 9 11 11 11 13 13 16 19 21 21 20 19 18 17 16 16
16 16 17 16 15 17 16 15 15 14 17 18 16 15 15 15 16 16 16 17 15 14 13 13 15 15 14 15 13 11 11 11 10 11 12 11 13 14 13 12 12 11 10 9 8 9 9 7 9 12 11 11 13 14 16 21 22 19 15 15 16 16 14 16 17 16 16 20 20 16 13 13 10 11 13 14 15 16 18 21 22 22 21 20 19 18 17 17
14 15 16 16 15 16 17 18 17 15 19 19 16 15 16 16 17 17 17 18 18 16 15 14 15 16 15 16 15 13 15 14 11 10 12 13 14 14 13 13 13 13 14 13 12 12 11 9 9 10 9 8 9 8 9 12 14 13 12 13 15 15 13 13 16 17 17 20 21 19 19 18 11 8 12 14 14 17 20 22 24 24 23 22 20 18 17 16
11 12 14 14 14 15 17 19 19 19 21 19 16 17 16 15 18 18 17 18 18 18 17 16 17 16 15 16 14 13 15 15 13 11 10 11 13 15 14 13 14 15 15 14 14 13 11 11 13 15 15 15 14 13 12 11 11 10 11 11 11 13 14 13 15 18 19 20 22 21 21 21 13 8 11 14 15 18 21 24 25 25 23 20 17 16 15 14
8 10 12 12 11 12 15 17 18 19 20 18 16 17 17 17 17 18 17 18 18 18 17 16 16 14 13 13 12 12 13 14 14 13 11 11 13 15 15 14 15 16 15 14 15 13 12 13 14 16 19 19 18 17 16 15 16 17 16 15 13 13 15 15 18 19 16 17 20 20 20 21 18 13 14 15 16 19 22 23 24 23 21 18 16 16 17 17
7 8 10 10 10 10 12 14 16 17 18 17 17 17 17 16 15 15 15 16 16 15 14 13 14 14 13 12 11 11 11 11 12 14 15 14 14 13 13 14 16 16 14 14 15 13 12 14 14 15 18 18 17 18 16 15 17 18 18 18 17 16 16 17 21 21 18 19 21 19 18 19 16 14 15 16 16 19 20 19 19 20 20 19 20 20 21 22
6 6 8 9 10 12 13 13 13 14 15 15 16 16 16 15 16 16 15 14 14 15 14 12 13 15 14 13 11 10 11 11 12 14 15 15 15 13 11 12 15 15 13 12 13 14 13 13 15 16 18 18 18 18 17 16 18 19 20 21 21 21 20 21 22 22 22 25 24 22 23 24 19 14 16 18 18 20 21 21 22 23 24 23 23 24 24 24
6 5 6 6 7 10 11 12 12 12 13 14 14 15 15 15 15 15 15 14 13 14 14 12 13 15 13 12 12 12 14 14 14 15 15 14 14 13 11 10 10 10 11 11 13 15 14 14 14 14 17 19 18 18 19 18 19 21 22 22 21 21 23 25 26 25 26 29 29 28 32 34 28 22 22 24 24 24 24 25 26 27 27 26 25 25 26 26
6 5 5 5 6 7 8 9 10 9 9 11 12 13 14 14 14 14 13 13 13 13 13 12 13 13 12 13 14 14 15 16 15 16 15 14 13 13 12 13 12 10 9 10 12 14 14 14 13 13 17 19 17 16 18 17 19 24 25 24 24 25 26 28 28 29 31 34 35 33 34 34 30 25 25 27 29 29 29 30 30 29 27 26 27 28 27 26
6 6 5 4 5 6 6 7 7 6 7 10 10 11 11 12 12 12 10 11 12 12 12 13 12 10 9 12 14 14 14 14 15 15 15 15 16 16 15 15 15 13 10 9 12 13 13 13 13 14 18 19 14 12 13 12 15 19 20 21 24 26 28 28 28 29 30 32 31 29 27 26 23 22 24 24 24 28 30 30 31 30 28 28 29 29 29 28
Wind_Direction
276 276 276 275 273 272 274 280 285 290 297 301 306 307 305 304 303 305 305 299 293 289 289 288 286 282 276 272 269 264 259 254 251 250 249 248 246 243 243 243 242 241 241 240 238 237 236 234 235 231 226 226 222 225 230 230 226 224 225 230 237 236 237 235 228 231 222 222 261 301 275 258 270 264 247 234 226 220 215 215 215 211 210 205 204 201 185 190
276 276 275 273 270 267 268 272 279 285 293 300 305 306 304 303 304 307 310 306 300 296 295 295 293 289 284 278 271 265 260 255 254 256 255 250 247 247 245 242 242 241 239 238 234 232 229 228 230 223 218 221 218 219 224 228 224 216 219 232 238 236 240 239 229 223 217 229 255 293 284 266 267 267 253 230 224 222 216 214 216 216 215 208 208 205 186 183
278 277 275 272 268 263 262 265 273 280 288 297 301 305 303 303 306 310 315 315 310 301 297 296 295 295 289 279 270 265 261 259 259 260 258 252 248 245 241 239 238 239 237 233 228 226 223 222 222 216 211 211 218 216 214 225 225 220 222 231 243 242 243 247 236 220 215 225 240 273 280 280 271 258 241 215 214 219 214 212 215 218 218 214 209 202 192 183
281 279 276 271 266 260 257 260 267 275 282 292 299 303 302 304 309 313 321 325 320 309 299 295 294 297 287 283 279 272 266 269 269 265 263 258 249 243 239 237 235 235 232 227 225 223 220 217 212 210 202 202 223 215 209 224 220 225 228 225 244 249 246 251 244 229 225 224 231 268 288 302 277 241 209 199 206 211 208 211 214 217 219 217 212 202 197 187
286 283 277 270 263 256 253 256 263 271 279 288 298 304 305 309 313 319 327 331 331 319 303 293 288 291 296 301 289 276 154 317 278 266 265 258 247 243 237 233 232 227 222 218 218 216 215 213 205 203 194 197 223 211 212 224 214 226 235 230 240 249 249 249 246 242 233 225 236 279 300 298 275 235 192 184 194 208 205 209 211 214 215 210 213 210 201 188
294 287 281 271 261 253 250 254 262 268 276 285 298 306 308 311 317 324 330 339 340 328 310 294 289 299 330 14 167 150 140 153 265 256 250 247 234 236 230 226 221 209 208 209 209 207 207 204 194 193 190 198 213 202 217 230 222 230 243 243 243 246 247 237 243 249 231 223 245 280 290 287 286 337 178 169 187 206 209 212 207 204 201 194 202 210 201 186
310 299 287 274 258 249 247 252 261 266 273 283 296 306 311 312 319 326 334 346 345 339 329 303 298 356 77 112 135 134 161 184 244 183 203 204 199 211 211 210 200 189 196 201 200 197 194 186 180 188 186 200 209 205 224 234 231 227 233 247 249 249 246 233 242 243 223 222 246 272 280 291 18 60 135 149 185 192 197 201 185 179 185 185 190 196 193 181
334 316 297 274 255 246 247 253 262 266 271 279 292 303 311 314 318 328 339 350 352 360 356 322 154 122 109 116 123 117 147 184 162 150 161 155 166 179 184 187 177 177 183 186 190 182 176 171 178 183 177 208 209 208 228 230 238 233 228 248 253 251 252 247 244 225 215 226 245 260 266 347 76 130 118 128 161 152 160 167 158 163 174 178 178 180 182 175
357 335 309 277 255 246 250 258 265 270 274 277 287 299 310 315 318 326 338 349 356 12 26 132 146 129 121 122 114 102 124 129 121 132 134 136 150 164 168 167 158 161 164 169 179 172 166 172 181 174 173 208 203 202 221 211 240 242 231 248 252 254 266 257 234 209 212 227 230 215 142 112 120 126 113 128 142 130 146 156 153 163 170 170 167 170 177 172
10 355 327 279 255 248 251 259 265 271 274 275 280 292 305 313 316 320 334 345 349 7 86 143 141 130 131 125 105 103 167 121 118 122 119 121 139 160 159 153 148 148 154 166 173 166 165 177 182 174 176 201 197 202 209 193 228 237 225 243 247 255 265 246 216 203 212 223 208 184 145 132 122 123 120 153 147 131 144 161 165 167 168 169 164 169 175 172
16 9 352 302 259 252 253 257 262 268 271 272 273 281 293 304 312 311 325 335 344 348 176 147 141 139 141 129 118 182 183 120 122 117 106 108 133 157 155 151 150 149 154 162 164 156 154 166 166 155 164 199 195 202 203 205 221 215 195 234 250 259 256 226 207 201 204 219 200 171 156 146 118 117 139 155 154 145 147 166 175 172 171 170 166 172 177 177
13 12 8 354 301 266 260 259 258 260 265 268 268 270 278 291 302 298 314 328 322 253 173 146 147 148 145 139 146 179 164 126 115 104 98 103 126 149 155 158 159 158 157 155 155 153 144 139 143 144 165 185 172 196 214 219 213 192 191 248 252 244 232 208 200 197 199 219 198 169 171 170 142 139 148 148 157 161 160 165 173 174 175 175 172 176 182 186
3 8 11 8 2 329 290 270 259 253 253 255 260 261 263 274 283 279 278 298 275 202 170 154 155 155 148 150 167 169 152 129 107 100 101 107 122 139 152 161 163 164 160 149 147 156 148 134 134 143 156 157 162 201 213 217 196 192 244 255 237 204 189 197 192 191 198 203 186 176 193 185 166 169 154 152 164 167 170 171 174 177 179 179 178 180 185 192
350 1 8 10 13 7 352 326 285 255 246 245 247 248 248 250 249 248 233 207 178 176 169 159 159 164 158 155 170 169 149 124 111 108 110 116 127 138 150 158 162 163 158 147 141 150 155 144 136 139 148 151 170 189 190 209 194 202 233 219 221 194 161 180 185 172 186 191 176 184 215 193 166 182 162 153 169 172 181 186 190 192 190 188 187 187 188 193
340 352 2 8 11 12 13 11 2 293 251 244 239 240 239 236 232 228 216 192 173 177 171 163 166 168 164 169 178 165 146 134 126 122 120 124 130 139 152 161 166 167 160 152 143 142 151 151 143 141 159 160 164 174 183 204 194 208 223 192 203 196 143 161 179 158 161 181 173 187 222 199 171 201 184 166 176 180 192 198 203 204 200 199 195 192 191 194
335 345 356 6 10 13 15 24 37 40 310 245 240 238 234 230 227 216 209 195 169 175 172 163 165 161 156 175 180 162 157 156 146 142 139 137 138 144 154 163 169 172 171 164 156 149 149 156 158 153 166 162 174 205 205 199 192 205 227 193 192 203 158 157 169 165 164 173 178 196 226 218 189 207 197 178 178 182 196 203 207 205 202 202 200 196 194 195
338 344 351 360 9 13 14 27 46 57 62 266 253 245 242 237 229 219 209 197 176 179 177 167 164 161 164 177 175 173 175 170 163 161 159 156 154 153 157 166 173 177 180 183 181 169 162 170 169 155 166 178 197 212 216 209 195 196 215 203 187 207 193 166 162 181 181 180 189 202 227 239 216 219 216 199 194 193 191 194 198 197 196 201 203 201 198 196
348 346 345 350 357 3 7 15 44 64 64 299 291 295 281 243 228 222 209 201 186 177 180 179 168 160 179 182 175 179 177 175 176 174 171 169 170 168 167 172 179 184 182 192 211 199 193 195 183 192 212 206 198 209 230 225 190 194 204 202 191 198 210 182 159 174 170 181 197 205 225 240 254 244 242 238 230 218 201 194 192 188 190 197 202 204 202 199
6 356 349 347 343 345 348 352 36 63 357 319 343 10 12 311 227 225 212 203 186 171 180 189 175 169 192 185 172 172 171 174 176 176 177 175 181 184 183 187 188 192 192 203 235 225 212 217 209 214 217 207 211 227 255 274 222 212 211 218 212 200 204 197 183 193 183 197 210 213 228 238 259 256 254 255 248 229 213 203 200 193 189 195 201 205 205 203
20 15 6 1 354 352 354 353 20 19 346 23 26 55 46 25 37 259 227 206 195 183 186 190 181 181 188 178 164 162 160 161 169 174 175 172 181 186 190 201 198 201 205 205 230 237 226 228 226 223 220 218 236 251 265 264 230 215 219 226 222 221 214 192 202 226 219 222 221 220 240 246 255 257 251 253 249 234 219 205 203 202 194 195 200 204 207 208
15 19 15 12 12 14 23 28 43 59 60 58 62 79 76 75 96 293 253 207 201 195 190 187 185 185 180 172 164 160 152 150 163 170 171 170 169 175 190 196 199 211 215 211 226 242 237 229 226 223 232 237 246 257 260 249 220 208 219 226 221 225 219 190 202 232 230 235 236 241 253 250 252 256 244 241 242 232 219 205 203 203 198 199 202 204 207 211
354 2 4 6 9 13 24 33 47 62 65 73 78 84 85 83 87 3 260 186 195 195 189 183 185 188 179 171 164 159 151 152 172 168 161 163 152 165 206 196 191 214 227 228 227 239 238 226 224 230 235 235 237 240 235 227 214 211 217 223 225 222 212 203 216 237 240 238 247 265 265 257 252 254 250 244 236 223 213 203 201 202 200 201 202 201 204 208
329 338 346 349 351 353 4 15 29 46 57 72 75 74 74 72 71 66 107 136 170 186 185 179 182 182 173 173 169 163 158 159 179 171 154 161 159 168 197 193 191 210 224 227 221 231 235 214 215 226 225 217 224 225 214 213 212 213 217 221 224 216 220 223 206 220 245 247 258 276 272 263 252 247 249 250 247 221 208 201 200 203 203 203 203 200 200 200
310 312 323 328 327 329 340 348 360 20 43 60 57 61 62 63 74 75 113 121 136 174 179 177 179 174 167 172 170 165 168 169 177 183 172 170 175 183 190 191 198 206 212 216 219 231 246 221 205 200 199 200 206 210 209 218 219 212 216 225 230 223 233 242 209 216 258 264 265 277 274 261 245 237 240 241 240 222 207 203 203 207 208 213 214 209 205 201
300 297 298 298 303 305 313 323 340 4 14 38 45 59 59 55 64 85 119 116 119 162 169 172 176 177 171 169 174 168 170 181 185 191 189 179 181 190 195 192 187 201 210 204 213 228 236 223 197 181 185 195 202 214 214 224 231 222 218 225 235 237 234 241 237 243 257 252 236 256 272 257 217 218 225 221 219 213 207 206 210 215 219 225 227 221 215 210
301 290 282 279 285 286 296 304 297 340 344 355 40 54 58 50 62 98 119 122 130 145 157 170 173 183 179 171 180 170 164 200 206 199 192 189 188 182 190 192 175 196 205 195 217 229 225 214 198 195 195 187 205 222 219 227 239 235 225 224 229 232 229 227 229 241 253 255 239 252 273 263 229 220 211 207 211 209 209 210 212 218 223 227 229 229 225 221
307 291 279 274 272 272 283 288 275 288 293 279 343 50 39 19 74 119 132 140 144 144 161 176 176 184 188 183 182 173 172 190 198 206 199 195 195 180 178 192 189 196 193 201 214 197 188 205 204 205 206 209 224 229 225 229 239 239 223 218 218 216 219 221 226 243 257 273 274 258 259 265 259 239 205 206 213 207 209 214 214 215 219 224 226 230 232 232
311 296 286 277 270 268 272 271 268 264 262 269 260 223 224 307 151 153 173 164 134 144 163 174 184 186 187 190 179 181 190 165 163 220 207 199 202 191 188 203 208 214 225 251 235 156 188 229 219 220 222 230 234 234 228 217 231 250 230 214 214 208 215 223 234 252 259 268 266 246 229 255 261 241 204 209 221 217 210 214 223 224 225 227 228 230 233 236
308 301 294 284 277 270 266 264 261 258 257 256 249 240 235 237 187 172 222 233 132 157 165 165 180 181 182 190 176 178 185 174 176 208 193 193 204 200 204 215 218 231 252 269 281 296 287 261 234 231 228 237 236 228 221 212 226 241 224 210 213 212 218 226 243 258 254 254 265 250 222 253 267 244 216 211 220 223 215 217 231 236 237 237 236 236 238 241
299 298 295 290 285 272 263 260 252 251 250 246 251 250 247 239 208 206 227 188 145 168 174 169 175 175 176 185 177 172 177 181 183 180 175 181 198 208 212 219 229 240 259 270 270 274 270 268 291 257 234 235 231 222 221 221 222 216 204 206 214 219 227 234 245 257 255 253 257 239 221 252 271 252 229 223 227 224 220 220 225 230 236 238 236 235 238 243
288 288 290 288 287 277 264 256 248 248 242 240 252 247 240 229 220 233 220 175 160 165 168 176 186 172 162 170 174 169 172 183 184 178 182 194 210 223 221 229 238 231 239 248 246 249 244 251 293 298 255 231 224 226 230 224 216 205 204 218 227 225 230 238 236 234 249 255 222 190 218 241 255 252 231 235 259 250 233 224 218 221 226 227 226 229 236 245
277 279 283 284 286 281 268 255 246 250 243 234 242 234 220 228 232 237 192 176 178 166 166 175 172 160 153 161 175 170 167 182 189 186 187 194 206 216 219 224 223 228 236 228 223 246 245 243 265 283 286 241 219 223 227 223 222 218 217 228 236 234 230 240 240 231 249 250 149 160 216 234 249 253 234 242 261 262 248 234 229 225 219 220 224 231 239 248
270 271 274 276 279 279 268 258 242 245 247 238 239 223 224 240 234 209 174 178 182 170 175 177 162 159 156 162 178 172 170 185 190 196 203 198 202 218 233 236 226 235 252 247 248 266 250 228 242 262 274 251 222 220 226 227 224 222 225 230 239 249 244 242 250 250 255 241 162 195 230 241 249 244 237 250 259 259 248 225 218 215 210 216 221 226 236 245
265 265 266 265 267 269 263 256 244 234 238 246 242 209 221 241 233 203 185 183 187 182 185 185 171 163 168 183 191 175 176 208 202 203 220 215 211 215 234 245 238 236 250 258 255 264 264 233 205 215 230 236 234 233 238 241 231 224 229 238 245 255 258 257 266 266 266 247 156 181 219 244 249 215 210 245 261 256 228 197 199 201 200 206 202 204 231 250
263 263 264 262 260 259 253 248 242 231 226 227 228 220 225 236 230 206 199 198 199 193 198 203 192 186 188 196 205 189 183 210 213 208 219 220 216 206 207 237 245 229 229 249 244 241 260 261 234 232 240 245 254 251 242 246 244 230 229 241 247 251 255 265 282 287 291 292 221 206 227 246 254 241 233 248 267 256 222 202 209 206 202 210 209 210 292 320
263 261 263 264 260 255 249 246 242 236 230 222 229 234 236 237 228 213 213 215 208 199 211 218 211 216 213 200 209 209 198 205 214 213 218 223 224 224 225 236 241 222 218 240 247 236 246 253 245 245 251 248 251 255 240 240 246 233 233 241 244 250 253 260 272 269 271 278 259 241 244 250 253 250 249 253 255 247 230 222 224 218 215 219 222 240 280 299
264 261 260 261 260 257 255 252 249 244 240 233 236 241 243 246 240 230 227 227 223 215 219 226 221 222 221 207 197 194 197 210 213 216 221 222 230 232 227 230 232 219 212 221 238 246 251 259 248 237 249 250 247 254 251 244 242 238 243 244 240 245 246 248 260 252 242 257 258 242 241 251 255 241 231 239 240 238 239 242 238 229 223 221 225 242 271 289
264 262 260 259 258 258 257 257 255 250 245 240 242 246 247 249 247 239 234 233 232 229 228 233 233 229 227 222 208 191 207 224 219 228 230 218 233 236 222 218 226 226 221 218 236 246 244 257 254 233 241 251 251 255 254 249 244 243 250 253 247 250 244 237 247 256 254 258 260 247 240 251 257 243 215 225 237 241 242 243 242 234 226 225 227 240 263 282
262 261 262 260 259 257 254 254 255 251 248 244 244 248 246 245 248 245 239 236 233 231 233 234 235 236 233 227 220 213 228 239 239 245 241 225 234 237 220 211 216 225 221 206 222 238 226 248 257 239 232 245 248 245 244 246 246 247 250 248 248 257 258 250 250 257 262 263 270 266 255 255 258 250 235 225 232 242 242 239 238 234 229 228 228 236 253 269
261 258 259 259 258 256 251 251 254 251 249 243 236 240 242 242 249 248 240 237 232 228 232 232 230 235 232 227 232 233 236 246 249 250 247 233 233 240 231 223 223 231 235 229 236 244 229 242 255 249 238 246 246 238 241 247 243 243 247 243 243 249 253 258 257 255 259 264 270 270 264 266 267 249 232 217 223 239 243 241 239 233 228 228 229 235 245 253
264 257 256 256 254 253 251 251 251 244 243 247 243 243 243 240 244 247 242 239 235 231 233 232 228 229 228 229 236 236 238 250 250 246 247 238 235 245 240 234 234 238 246 250 246 245 240 240 252 254 250 252 250 234 233 243 245 248 252 250 253 253 250 257 257 248 251 260 266 269 271 275 269 221 211 212 226 241 243 242 239 231 226 227 229 232 237 241
265 255 253 254 251 252 250 244 247 246 242 245 245 244 245 242 240 242 241 238 237 238 237 236 234 233 232 235 238 239 246 252 247 243 244 239 241 252 250 245 245 243 247 254 249 251 257 252 253 256 253 254 259 246 238 243 247 250 252 253 257 258 252 254 261 262 259 260 267 269 268 269 249 209 205 215 234 243 242 239 234 228 227 227 228 231 233 234
262 255 254 252 249 252 247 239 248 253 246 242 245 245 245 241 237 237 237 235 235 238 237 236 239 239 240 243 243 244 247 246 242 243 244 243 248 257 258 254 252 251 255 258 254 258 262 254 252 257 255 254 258 257 254 255 255 255 255 251 249 255 257 257 266 278 273 262 263 265 261 257 241 226 230 247 256 251 242 237 233 230 230 228 227 228 228 229
258 257 257 252 247 248 243 237 243 248 246 247 250 249 245 241 237 235 235 235 235 237 238 239 241 242 244 247 246 239 238 241 244 247 246 243 247 255 254 248 247 249 246 240 242 253 259 254 253 258 259 250 247 249 250 250 250 250 250 247 246 254 262 261 265 271 266 260 261 261 261 261 251 236 242 257 263 251 240 235 233 232 231 228 227 224 222 224
257 256 255 250 246 243 239 239 239 239 247 253 251 246 245 244 241 237 237 240 240 240 241 242 244 244 245 247 247 243 244 245 246 248 246 240 244 252 251 245 245 245 246 248 250 257 259 253 247 251 258 254 244 246 256 253 246 240 242 249 255 257 255 256 262 258 253 257 257 255 262 267 264 243 240 249 256 246 237 234 232 230 230 229 226 224 223 224
260 255 252 248 244 239 238 241 241 241 247 250 247 245 244 242 245 245 244 246 247 246 246 248 249 250 248 248 247 244 245 246 244 244 240 232 239 248 247 244 246 247 250 255 256 257 255 251 249 250 253 259 264 270 279 276 260 252 257 258 257 259 256 255 257 255 258 264 257 253 263 265 259 239 232 242 253 246 239 239 236 230 228 229 231 235 238 240
266 254 250 247 241 236 235 237 237 239 242 242 240 244 243 241 247 251 248 248 250 251 252 253 251 248 246 245 241 237 239 242 240 236 230 226 236 248 248 243 245 248 251 254 255 256 254 253 253 250 252 258 265 270 274 272 264 264 266 261 253 257 258 252 248 252 262 267 259 258 264 260 254 248 237 238 248 246 240 238 235 230 231 239 250 259 262 263
279 261 252 245 238 234 234 236 234 235 239 238 238 243 245 243 243 244 246 249 250 249 250 252 252 250 247 245 240 236 236 234 232 233 234 233 235 242 245 244 245 248 251 254 256 251 249 256 257 254 257 260 261 264 266 264 261 260 260 259 255 253 253 250 249 252 256 257 259 267 269 258 252 256 252 243 242 243 240 237 239 244 251 259 268 273 275 274
293 275 262 251 243 240 241 242 241 240 241 242 243 246 246 246 244 242 245 248 249 250 249 249 253 256 254 249 241 231 228 226 227 231 233 234 235 233 233 244 253 252 245 247 252 247 247 259 259 256 264 266 263 263 262 259 260 259 256 257 257 255 255 254 253 254 253 254 258 263 262 255 249 256 263 256 245 241 241 242 249 259 266 270 274 277 277 275
312 291 274 263 255 251 250 249 248 248 249 248 249 251 249 250 251 250 249 247 245 248 247 239 244 250 249 245 238 231 233 234 234 236 236 235 237 235 228 232 243 243 237 239 248 252 256 264 263 262 269 271 267 262 259 258 260 260 257 255 255 255 254 253 254 255 253 254 257 259 260 260 259 259 258 254 250 250 250 251 257 263 267 270 274 275 274 272
334 323 305 287 274 267 264 260 256 253 253 249 247 248 250 251 253 253 253 250 243 243 242 236 236 242 242 240 238 237 240 241 238 240 240 233 230 230 230 232 234 237 244 248 254 259 264 267 270 270 269 271 270 262 259 261 264 264 259 253 251 250 251 253 254 254 255 258 261 262 264 267 268 261 253 253 256 257 256 258 261 262 264 269 272 271 270 269
350 345 335 326 307 293 285 278 271 258 253 254 250 247 247 248 251 251 251 252 246 240 239 238 236 234 235 239 239 237 240 241 239 239 238 233 233 236 237 241 242 242 247 255 260 265 265 262 267 270 268 270 271 262 260 267 270 266 255 247 249 252 253 256 257 256 258 261 261 261 263 265 262 253 249 254 258 256 252 255 260 263 266 270 269 265 264 263